Glendive, MT

6:50 AM MDT on March 30, 2017 (GMT -0600)
Dawson Community

Weather History for KGDV - July, 2013

Change the Weather History Date:

Thursday, July 25, 2013

  Actual Average Record
Temperature  
Mean Temperature 62 °F -  
Max Temperature 71 °F 84 °F 96 °F (2015)
Min Temperature 53 °F 57 °F 51 °F (1996)
Degree Days  
Heating Degree Days 3    
Growing Degree Days 12 (Base 50)    
Moisture  
Dew Point 51 °F    
Average Humidity 63    
Maximum Humidity 88    
Minimum Humidity 40    
Precipitation  
Precipitation 0.00 in - - ()
Sea Level Pressure  
Sea Level Pressure 30.16 in    
Wind  
Wind Speed 11 mph (North)    
Max Wind Speed 18 mph    
Max Gust Speed 24 mph    
Visibility 10 miles    
Events      
Averages and records for this station are not official NWS values.
T = Trace of Precipitation, MM = Missing Value Source: NWS Daily Summary

Daily Weather History Graph

Daily Weather History Graph

Search for Another Location

Airport or City:

Trip Planner

Search our weather history database for the weather conditions in past years. The results will help you decide how hot, cold, wet, or windy it might be!

Date:

Astronomy

Jul. 25, 2013 Rise Set
Actual Time 5:30 AM MDT 8:40 PM MDT
Civil Twilight 4:53 AM MDT 9:17 PM MDT
Nautical Twilight 4:05 AM MDT 10:04 PM MDT
Astronomical Twilight 3:06 AM MDT 11:03 PM MDT
Moon 10:02 PM MDT (7/25) 9:20 AM MDT (7/25)
Length of Visible Light 16h 23m
Length of Day
15h 10m
Waning Gibbous, 88% of the Moon is Illuminated
Jul 25
Waning Gibbous
Jul 29
Last Quarter
Aug 6
New
Aug 14
First Quarter
Aug 20
Full

Hourly Weather History & Observations

Time (MDT) Temp. Dew Point Humidity Pressure Visibility Wind Dir Wind Speed Gust Speed Precip Events Conditions
12:15 AM 66.2 °F 53.6 °F 64% 30.06 in 10.0 mi NE 9.2 mph - N/A   Scattered Clouds
12:35 AM 66.2 °F 55.4 °F 68% 30.08 in 10.0 mi North 10.4 mph - N/A   Mostly Cloudy
12:55 AM 66.2 °F 57.2 °F 73% 30.06 in 10.0 mi NE 11.5 mph - N/A   Overcast
1:15 AM 66.2 °F 57.2 °F 73% 30.03 in 10.0 mi East 10.4 mph - N/A   Mostly Cloudy
1:35 AM 64.4 °F 57.2 °F 77% 30.02 in 10.0 mi ENE 8.1 mph - N/A   Scattered Clouds
1:55 AM 64.4 °F 57.2 °F 77% 30.02 in 10.0 mi ENE 4.6 mph - N/A   Scattered Clouds
2:15 AM 62.6 °F 57.2 °F 82% 30.05 in 10.0 mi NW 6.9 mph - N/A   Clear
2:35 AM 62.6 °F 57.2 °F 82% 30.06 in 10.0 mi NNW 5.8 mph - N/A   Clear
3:15 AM 60.8 °F 55.4 °F 82% 30.06 in 10.0 mi NNW 8.1 mph - N/A   Clear
3:35 AM 60.8 °F 55.4 °F 82% 30.06 in 10.0 mi NW 3.5 mph - N/A   Clear
3:55 AM 60.8 °F 55.4 °F 82% 30.07 in 10.0 mi NNW 8.1 mph - N/A   Clear
4:15 AM 59.0 °F 53.6 °F 82% 30.07 in 10.0 mi NNW 6.9 mph - N/A   Clear
4:35 AM 59.0 °F 53.6 °F 82% 30.08 in 10.0 mi NW 10.4 mph - N/A   Clear
4:55 AM 59.0 °F 53.6 °F 82% 30.09 in 10.0 mi NW 6.9 mph - N/A   Clear
5:15 AM 57.2 °F 53.6 °F 88% 30.09 in 10.0 mi North 5.8 mph - N/A   Clear
5:55 AM 59.0 °F 53.6 °F 82% 30.10 in 10.0 mi NNW 8.1 mph - N/A   Clear
6:15 AM 60.8 °F 53.6 °F 77% 30.10 in 10.0 mi North 10.4 mph - N/A   Clear
6:35 AM 60.8 °F 53.6 °F 77% 30.11 in 10.0 mi North 11.5 mph - N/A   Clear
6:55 AM 62.6 °F 53.6 °F 72% 30.12 in 10.0 mi North 12.7 mph - N/A   Clear
7:15 AM 64.4 °F 53.6 °F 68% 30.13 in 10.0 mi North 12.7 mph - N/A   Clear
7:35 AM 62.6 °F 53.6 °F 72% 30.14 in 10.0 mi NNE 16.1 mph 19.6 mph N/A   Clear
7:55 AM 62.6 °F 53.6 °F 72% 30.15 in 10.0 mi NNE 17.3 mph - N/A   Clear
8:15 AM 62.6 °F 53.6 °F 72% 30.15 in 10.0 mi North 13.8 mph - N/A   Clear
8:35 AM 64.4 °F 55.4 °F 73% 30.16 in 10.0 mi North 13.8 mph 20.7 mph N/A   Clear
8:55 AM 64.4 °F 55.4 °F 73% 30.17 in 10.0 mi North 11.5 mph - N/A   Partly Cloudy
9:15 AM 66.2 °F 53.6 °F 64% 30.17 in 10.0 mi North 11.5 mph - N/A   Clear
9:35 AM 66.2 °F 53.6 °F 64% 30.17 in 10.0 mi NNE 11.5 mph 19.6 mph N/A   Clear
9:55 AM 68.0 °F 53.6 °F 60% 30.17 in 10.0 mi North 12.7 mph - N/A   Clear
10:15 AM 68.0 °F 55.4 °F 64% 30.18 in 10.0 mi North 16.1 mph - N/A   Scattered Clouds
10:35 AM 66.2 °F 53.6 °F 64% 30.19 in 10.0 mi NNE 12.7 mph - N/A   Mostly Cloudy
10:55 AM 66.2 °F 53.6 °F 64% 30.19 in 10.0 mi North 10.4 mph - N/A   Scattered Clouds
11:15 AM 66.2 °F 53.6 °F 64% 30.20 in 10.0 mi North 13.8 mph - N/A   Mostly Cloudy
11:35 AM 68.0 °F 53.6 °F 60% 30.19 in 10.0 mi NNW 11.5 mph 16.1 mph N/A   Mostly Cloudy
11:55 AM 66.2 °F 53.6 °F 64% 30.20 in 10.0 mi NNW 11.5 mph - N/A   Overcast
12:15 PM 66.2 °F 53.6 °F 64% 30.19 in 10.0 mi NNW 13.8 mph 19.6 mph N/A   Overcast
12:35 PM 68.0 °F 53.6 °F 60% 30.20 in 10.0 mi NNW 16.1 mph - N/A   Mostly Cloudy
12:55 PM 66.2 °F 53.6 °F 64% 30.20 in 10.0 mi NNW 15.0 mph 19.6 mph N/A   Overcast
1:15 PM 68.0 °F 53.6 °F 60% 30.20 in 10.0 mi NW 12.7 mph - N/A   Overcast
1:35 PM 69.8 °F 53.6 °F 56% 30.20 in 10.0 mi North 12.7 mph 19.6 mph N/A   Overcast
1:55 PM 68.0 °F 53.6 °F 60% 30.20 in 10.0 mi NNW 10.4 mph 18.4 mph N/A   Overcast
2:15 PM 69.8 °F 53.6 °F 56% 30.19 in 10.0 mi NNW 18.4 mph 23.0 mph N/A   Mostly Cloudy
2:35 PM 69.8 °F 53.6 °F 56% 30.19 in 10.0 mi NNW 17.3 mph 23.0 mph N/A   Mostly Cloudy
2:55 PM 69.8 °F 51.8 °F 53% 30.19 in 10.0 mi NNW 13.8 mph 23.0 mph N/A   Scattered Clouds
3:15 PM 71.6 °F 51.8 °F 50% 30.19 in 10.0 mi NNW 15.0 mph 24.2 mph N/A   Clear
3:35 PM 71.6 °F 50.0 °F 46% 30.19 in 10.0 mi North 16.1 mph 21.9 mph N/A   Clear
3:55 PM 71.6 °F 51.8 °F 50% 30.18 in 10.0 mi North 18.4 mph 21.9 mph N/A   Clear
4:15 PM 71.6 °F 48.2 °F 43% 30.18 in 10.0 mi North 18.4 mph 23.0 mph N/A   Clear
4:35 PM 69.8 °F 46.4 °F 43% 30.18 in 10.0 mi North 15.0 mph 23.0 mph N/A   Clear
4:55 PM 71.6 °F 46.4 °F 41% 30.18 in 10.0 mi North 17.3 mph 21.9 mph N/A   Clear
5:15 PM 71.6 °F 46.4 °F 41% 30.18 in 10.0 mi North 17.3 mph 21.9 mph N/A   Clear
5:35 PM 69.8 °F 44.6 °F 40% 30.18 in 10.0 mi North 12.7 mph - N/A   Clear
6:15 PM 69.8 °F 44.6 °F 40% 30.19 in 10.0 mi NNW 12.7 mph 19.6 mph N/A   Clear
6:35 PM 68.0 °F 44.6 °F 43% 30.19 in 10.0 mi North 13.8 mph - N/A   Clear
6:55 PM 68.0 °F 44.6 °F 43% 30.19 in 10.0 mi North 12.7 mph - N/A   Clear
7:15 PM 66.2 °F 44.6 °F 46% 30.20 in 10.0 mi North 13.8 mph 19.6 mph N/A   Clear
7:35 PM 66.2 °F 44.6 °F 46% 30.20 in 10.0 mi NNE 12.7 mph - N/A   Clear
7:55 PM 64.4 °F 44.6 °F 49% 30.21 in 10.0 mi NNE 10.4 mph - N/A   Clear
8:15 PM 64.4 °F 44.6 °F 49% 30.21 in 10.0 mi NNE 11.5 mph - N/A   Partly Cloudy
8:35 PM 62.6 °F 44.6 °F 52% 30.22 in 10.0 mi NNE 8.1 mph - N/A   Clear
8:55 PM 60.8 °F 44.6 °F 55% 30.23 in 10.0 mi NNE 8.1 mph - N/A   Clear
9:15 PM 59.0 °F 44.6 °F 59% 30.24 in 10.0 mi NNE 6.9 mph - N/A   Clear
9:35 PM 57.2 °F 44.6 °F 63% 30.25 in 10.0 mi NNE 5.8 mph - N/A   Clear
9:55 PM 57.2 °F 44.6 °F 63% 30.25 in 10.0 mi NNE 4.6 mph - N/A   Clear
10:35 PM 57.2 °F 44.6 °F 63% 30.26 in 10.0 mi North 5.8 mph - N/A   Clear
10:55 PM 55.4 °F 44.6 °F 67% 30.26 in 10.0 mi North 8.1 mph - N/A   Clear
11:15 PM 55.4 °F 42.8 °F 63% 30.26 in 10.0 mi NNE 8.1 mph - N/A   Clear
11:35 PM 53.6 °F 42.8 °F 67% 30.27 in 10.0 mi NNE 6.9 mph - N/A   Clear
11:55 PM 53.6 °F 42.8 °F 67% 30.27 in 10.0 mi NNE 5.8 mph - N/A   Clear